owner,sensor,date,latitude,longitude,vertical_datum,wind_speed,wind_to_direction,wind_speed_of_gust,qcFlag 
DISL,ioos:station:DISL:BSCA:1,2012-02-01T00:00:00Z,30.3288,-87.8293,0.0,5.55,115.5,-9999.0,'1111122,1111122,1111122' 
DISL,ioos:station:DISL:BSCA:1,2012-02-01T00:30:00Z,30.3288,-87.8293,0.0,5.91,116.1,-9999.0,'1111122,1111122,1111122' 
DISL,ioos:station:DISL:BSCA:1,2012-02-01T01:00:00Z,30.3288,-87.8293,0.0,6.0,103.1,-9999.0,'1111122,1111122,1111122' 
DISL,ioos:station:DISL:BSCA:1,2012-02-01T01:30:00Z,30.3288,-87.8293,0.0,5.39,108.9,-9999.0,'1111122,1111122,1111122' 
DISL,ioos:station:DISL:BSCA:1,2012-02-01T02:00:00Z,30.3288,-87.8293,0.0,4.83,107.3,-9999.0,'1111122,1111122,1111122' 
DISL,ioos:station:DISL:BSCA:1,2012-02-01T02:30:00Z,30.3288,-87.8293,0.0,3.8,111.8,-9999.0,'1111122,1111122,1111122' 
DISL,ioos:station:DISL:BSCA:1,2012-02-01T03:00:00Z,30.3288,-87.8293,0.0,3.93,98.6,-9999.0,'1111122,1111122,1111122' 
DISL,ioos:station:DISL:BSCA:1,2012-02-01T03:30:00Z,30.3288,-87.8293,0.0,3.71,92.9,-9999.0,'1111122,1111122,1111122' 
DISL,ioos:station:DISL:BSCA:1,2012-02-01T04:00:00Z,30.3288,-87.8293,0.0,4.04,100.7,-9999.0,'1111122,1111122,1111122' 
DISL,ioos:station:DISL:BSCA:1,2012-02-01T04:30:00Z,30.3288,-87.8293,0.0,3.93,118.9,-9999.0,'1111122,1111122,1111122' 
DISL,ioos:station:DISL:BSCA:1,2012-02-01T05:00:00Z,30.3288,-87.8293,0.0,3.03,95.7,-9999.0,'1111122,1111122,1111122' 
DISL,ioos:station:DISL:BSCA:1,2012-02-01T05:30:00Z,30.3288,-87.8293,0.0,4.16,110.5,-9999.0,'1111122,1111122,1111122' 
DISL,ioos:station:DISL:BSCA:1,2012-02-01T06:00:00Z,30.3288,-87.8293,0.0,4.25,118.9,-9999.0,'1111122,1111122,1111122' 
DISL,ioos:station:DISL:BSCA:1,2012-02-01T06:30:00Z,30.3288,-87.8293,0.0,3.46,88.0,-9999.0,'1111122,1111122,1111122' 
DISL,ioos:station:DISL:BSCA:1,2012-02-01T07:00:00Z,30.3288,-87.8293,0.0,2.69,85.5,-9999.0,'1111122,1111122,1111122' 
DISL,ioos:station:DISL:BSCA:1,2012-02-01T07:30:00Z,30.3288,-87.8293,0.0,4.3,112.3,-9999.0,'1111122,1111122,1111122' 
DISL,ioos:station:DISL:BSCA:1,2012-02-01T08:00:00Z,30.3288,-87.8293,0.0,3.97,120.5,-9999.0,'1111122,1111122,1111122' 
DISL,ioos:station:DISL:BSCA:1,2012-02-01T08:30:00Z,30.3288,-87.8293,0.0,3.6,119.0,-9999.0,'1111122,1111122,1111122' 
DISL,ioos:station:DISL:BSCA:1,2012-02-01T09:00:00Z,30.3288,-87.8293,0.0,4.18,112.9,-9999.0,'1111122,1111122,1111122' 
DISL,ioos:station:DISL:BSCA:1,2012-02-01T09:30:00Z,30.3288,-87.8293,0.0,4.49,126.0,-9999.0,'1111122,1111122,1111122' 
DISL,ioos:station:DISL:BSCA:1,2012-02-01T10:00:00Z,30.3288,-87.8293,0.0,3.86,126.5,-9999.0,'1111122,1111122,1111122' 
DISL,ioos:station:DISL:BSCA:1,2012-02-01T10:30:00Z,30.3288,-87.8293,0.0,3.82,121.4,-9999.0,'1111122,1111122,1111122' 
DISL,ioos:station:DISL:BSCA:1,2012-02-01T11:00:00Z,30.3288,-87.8293,0.0,3.9,116.2,-9999.0,'1111122,1111122,1111122' 
DISL,ioos:station:DISL:BSCA:1,2012-02-01T11:30:00Z,30.3288,-87.8293,0.0,3.97,120.3,-9999.0,'1111122,1111122,1111122' 
DISL,ioos:station:DISL:BSCA:1,2012-02-01T12:00:00Z,30.3288,-87.8293,0.0,4.06,130.1,-9999.0,'1111122,1111122,1111122' 
DISL,ioos:station:DISL:BSCA:1,2012-02-01T12:30:00Z,30.3288,-87.8293,0.0,3.52,120.0,-9999.0,'1111122,1111122,1111122' 
DISL,ioos:station:DISL:BSCA:1,2012-02-01T13:00:00Z,30.3288,-87.8293,0.0,3.96,119.5,-9999.0,'1111122,1111122,1111122' 
DISL,ioos:station:DISL:BSCA:1,2012-02-01T13:30:00Z,30.3288,-87.8293,0.0,4.99,123.0,-9999.0,'1111122,1111122,1111122' 
DISL,ioos:station:DISL:BSCA:1,2012-02-01T14:00:00Z,30.3288,-87.8293,0.0,4.96,116.9,-9999.0,'1111122,1111122,1111122' 
DISL,ioos:station:DISL:BSCA:1,2012-02-01T14:30:00Z,30.3288,-87.8293,0.0,4.89,121.2,-9999.0,'1111122,1111122,1111122' 
DISL,ioos:station:DISL:BSCA:1,2012-02-01T15:00:00Z,30.3288,-87.8293,0.0,3.97,132.1,-9999.0,'1111122,1111122,1111122' 
DISL,ioos:station:DISL:BSCA:1,2012-02-01T15:30:00Z,30.3288,-87.8293,0.0,3.87,124.1,-9999.0,'1111122,1111122,1111122' 
DISL,ioos:station:DISL:BSCA:1,2012-02-01T16:00:00Z,30.3288,-87.8293,0.0,4.51,132.2,-9999.0,'1111122,1111122,1111122' 
DISL,ioos:station:DISL:BSCA:1,2012-02-01T16:30:00Z,30.3288,-87.8293,0.0,4.5,138.4,-9999.0,'1111122,1111122,1111122' 
DISL,ioos:station:DISL:BSCA:1,2012-02-01T17:00:00Z,30.3288,-87.8293,0.0,4.95,147.3,-9999.0,'1111122,1111122,1111122' 
DISL,ioos:station:DISL:BSCA:1,2012-02-01T17:30:00Z,30.3288,-87.8293,0.0,3.71,151.0,-9999.0,'1111122,1111122,1111122' 
DISL,ioos:station:DISL:BSCA:1,2012-02-01T18:00:00Z,30.3288,-87.8293,0.0,5.65,313.8,-9999.0,'1111122,1111122,1111122' 
DISL,ioos:station:DISL:BSCA:1,2012-02-01T18:30:00Z,30.3288,-87.8293,0.0,6.43,335.4,-9999.0,'1111122,1111122,1111122' 
DISL,ioos:station:DISL:BSCA:1,2012-02-01T19:00:00Z,30.3288,-87.8293,0.0,1.99,38.56,-9999.0,'1111122,1111122,1111122' 
DISL,ioos:station:DISL:BSCA:1,2012-02-01T19:30:00Z,30.3288,-87.8293,0.0,2.17,239.5,-9999.0,'1111122,1111122,1111122' 
DISL,ioos:station:DISL:BSCA:1,2012-02-01T20:00:00Z,30.3288,-87.8293,0.0,2.8,174.4,-9999.0,'1111122,1111122,1111122' 
DISL,ioos:station:DISL:BSCA:1,2012-02-01T20:30:00Z,30.3288,-87.8293,0.0,1.71,170.1,-9999.0,'1111122,1111122,1111122' 
DISL,ioos:station:DISL:BSCA:1,2012-02-01T21:00:00Z,30.3288,-87.8293,0.0,3.19,168.1,-9999.0,'1111122,1111122,1111122' 
DISL,ioos:station:DISL:BSCA:1,2012-02-01T21:30:00Z,30.3288,-87.8293,0.0,3.21,148.9,-9999.0,'1111122,1111122,1111122' 
DISL,ioos:station:DISL:BSCA:1,2012-02-01T22:00:00Z,30.3288,-87.8293,0.0,2.24,139.8,-9999.0,'1111122,1111122,1111122' 
DISL,ioos:station:DISL:BSCA:1,2012-02-01T22:30:00Z,30.3288,-87.8293,0.0,1.26,180.1,-9999.0,'1111122,1111122,1111122' 
DISL,ioos:station:DISL:BSCA:1,2012-02-01T23:00:00Z,30.3288,-87.8293,0.0,0.43,232.1,-9999.0,'1111122,1111122,1111122' 
DISL,ioos:station:DISL:BSCA:1,2012-02-01T23:30:00Z,30.3288,-87.8293,0.0,0.49,240.4,-9999.0,'1111122,1111122,1111122' 
DISL,ioos:station:DISL:BSCA:1,2012-02-02T00:00:00Z,30.3288,-87.8293,0.0,0.38,272.7,-9999.0,'1111122,1111122,1111122' 
DISL,ioos:station:DISL:BSCA:1,2012-02-02T00:30:00Z,30.3288,-87.8293,0.0,0.34,230.8,-9999.0,'1111122,1111122,1111122' 
DISL,ioos:station:DISL:BSCA:1,2012-02-02T01:00:00Z,30.3288,-87.8293,0.0,2.67,183.1,-9999.0,'1111122,1111122,1111122' 
DISL,ioos:station:DISL:BSCA:1,2012-02-02T01:30:00Z,30.3288,-87.8293,0.0,0.5,235.6,-9999.0,'1111122,1111122,1111122' 
DISL,ioos:station:DISL:BSCA:1,2012-02-02T02:00:00Z,30.3288,-87.8293,0.0,4.38,182.6,-9999.0,'1111122,1111122,1111122' 
DISL,ioos:station:DISL:BSCA:1,2012-02-02T02:30:00Z,30.3288,-87.8293,0.0,6.53,156.8,-9999.0,'1111122,1111122,1111122' 
DISL,ioos:station:DISL:BSCA:1,2012-02-02T03:00:00Z,30.3288,-87.8293,0.0,7.65,151.2,-9999.0,'1111122,1111122,1111122' 
DISL,ioos:station:DISL:BSCA:1,2012-02-02T03:30:00Z,30.3288,-87.8293,0.0,1.4,201.1,-9999.0,'1111122,1111122,1111122' 
DISL,ioos:station:DISL:BSCA:1,2012-02-02T04:00:00Z,30.3288,-87.8293,0.0,3.85,303.4,-9999.0,'1111122,1111122,1111122' 
DISL,ioos:station:DISL:BSCA:1,2012-02-02T04:30:00Z,30.3288,-87.8293,0.0,1.11,289.3,-9999.0,'1111122,1111122,1111122' 
DISL,ioos:station:DISL:BSCA:1,2012-02-02T05:00:00Z,30.3288,-87.8293,0.0,0.32,305.7,-9999.0,'1111122,1111122,1111122' 
DISL,ioos:station:DISL:BSCA:1,2012-02-02T05:30:00Z,30.3288,-87.8293,0.0,0.98,269.5,-9999.0,'1111122,1111122,1111122' 
DISL,ioos:station:DISL:BSCA:1,2012-02-02T06:00:00Z,30.3288,-87.8293,0.0,0.46,301.1,-9999.0,'1111122,1111122,1111122' 
DISL,ioos:station:DISL:BSCA:1,2012-02-02T06:30:00Z,30.3288,-87.8293,0.0,0.41,300.8,-9999.0,'1111122,1111122,1111122' 
DISL,ioos:station:DISL:BSCA:1,2012-02-02T07:00:00Z,30.3288,-87.8293,0.0,0.36,253.5,-9999.0,'1111122,1111122,1111122' 
DISL,ioos:station:DISL:BSCA:1,2012-02-02T07:30:00Z,30.3288,-87.8293,0.0,0.64,263.1,-9999.0,'1111122,1111122,1111122' 
DISL,ioos:station:DISL:BSCA:1,2012-02-02T08:00:00Z,30.3288,-87.8293,0.0,0.96,267.7,-9999.0,'1111122,1111122,1111122' 
DISL,ioos:station:DISL:BSCA:1,2012-02-02T08:30:00Z,30.3288,-87.8293,0.0,0.08,254.2,-9999.0,'1111122,1111122,1111122' 
DISL,ioos:station:DISL:BSCA:1,2012-02-02T09:00:00Z,30.3288,-87.8293,0.0,0.91,273.7,-9999.0,'1111122,1111122,1111122' 
DISL,ioos:station:DISL:BSCA:1,2012-02-02T09:30:00Z,30.3288,-87.8293,0.0,0.57,306.6,-9999.0,'1111122,1111122,1111122' 
DISL,ioos:station:DISL:BSCA:1,2012-02-02T10:00:00Z,30.3288,-87.8293,0.0,1.11,340.5,-9999.0,'1111122,1111122,1111122' 
DISL,ioos:station:DISL:BSCA:1,2012-02-02T10:30:00Z,30.3288,-87.8293,0.0,0.26,321.2,-9999.0,'1111122,1111122,1111122' 
DISL,ioos:station:DISL:BSCA:1,2012-02-02T11:00:00Z,30.3288,-87.8293,0.0,0.45,315.0,-9999.0,'1111122,1111122,1111122' 
DISL,ioos:station:DISL:BSCA:1,2012-02-02T11:30:00Z,30.3288,-87.8293,0.0,0.42,291.3,-9999.0,'1111122,1111122,1111122' 
DISL,ioos:station:DISL:BSCA:1,2012-02-02T12:00:00Z,30.3288,-87.8293,0.0,0.34,310.4,-9999.0,'1111122,1111122,1111122' 
DISL,ioos:station:DISL:BSCA:1,2012-02-02T12:30:00Z,30.3288,-87.8293,0.0,0.58,297.2,-9999.0,'1111122,1111122,1111122' 
DISL,ioos:station:DISL:BSCA:1,2012-02-02T13:00:00Z,30.3288,-87.8293,0.0,2.65,27.25,-9999.0,'1111122,1111122,1111122' 
DISL,ioos:station:DISL:BSCA:1,2012-02-02T13:30:00Z,30.3288,-87.8293,0.0,2.87,55.87,-9999.0,'1111122,1111122,1111122' 
DISL,ioos:station:DISL:BSCA:1,2012-02-02T14:00:00Z,30.3288,-87.8293,0.0,3.05,48.97,-9999.0,'1111122,1111122,1111122' 
DISL,ioos:station:DISL:BSCA:1,2012-02-02T14:30:00Z,30.3288,-87.8293,0.0,2.5,48.07,-9999.0,'1111122,1111122,1111122' 
DISL,ioos:station:DISL:BSCA:1,2012-02-02T15:00:00Z,30.3288,-87.8293,0.0,3.72,61.59,-9999.0,'1111122,1111122,1111122' 
DISL,ioos:station:DISL:BSCA:1,2012-02-02T15:30:00Z,30.3288,-87.8293,0.0,2.9,43.39,-9999.0,'1111122,1111122,1111122' 
DISL,ioos:station:DISL:BSCA:1,2012-02-02T16:00:00Z,30.3288,-87.8293,0.0,3.36,61.69,-9999.0,'1111122,1111122,1111122' 
DISL,ioos:station:DISL:BSCA:1,2012-02-02T16:30:00Z,30.3288,-87.8293,0.0,1.83,67.91,-9999.0,'1111122,1111122,1111122' 
DISL,ioos:station:DISL:BSCA:1,2012-02-02T17:00:00Z,30.3288,-87.8293,0.0,1.91,68.27,-9999.0,'1111122,1111122,1111122' 
DISL,ioos:station:DISL:BSCA:1,2012-02-02T17:30:00Z,30.3288,-87.8293,0.0,1.59,45.59,-9999.0,'1111122,1111122,1111122' 
DISL,ioos:station:DISL:BSCA:1,2012-02-02T18:00:00Z,30.3288,-87.8293,0.0,1.99,38.74,-9999.0,'1111122,1111122,1111122' 
DISL,ioos:station:DISL:BSCA:1,2012-02-02T18:30:00Z,30.3288,-87.8293,0.0,1.26,17.76,-9999.0,'1111122,1111122,1111122' 
DISL,ioos:station:DISL:BSCA:1,2012-02-02T19:00:00Z,30.3288,-87.8293,0.0,0.8,313.1,-9999.0,'1111122,1111122,1111122' 
DISL,ioos:station:DISL:BSCA:1,2012-02-02T19:30:00Z,30.3288,-87.8293,0.0,0.15,192.7,-9999.0,'1111122,1111122,1111122' 
DISL,ioos:station:DISL:BSCA:1,2012-02-02T20:00:00Z,30.3288,-87.8293,0.0,1.7,296.4,-9999.0,'1111122,1111122,1111122' 
DISL,ioos:station:DISL:BSCA:1,2012-02-02T20:30:00Z,30.3288,-87.8293,0.0,1.92,329.6,-9999.0,'1111122,1111122,1111122' 
DISL,ioos:station:DISL:BSCA:1,2012-02-02T21:00:00Z,30.3288,-87.8293,0.0,1.25,229.7,-9999.0,'1111122,1111122,1111122' 
DISL,ioos:station:DISL:BSCA:1,2012-02-02T21:30:00Z,30.3288,-87.8293,0.0,2.35,261.7,-9999.0,'1111122,1111122,1111122' 
DISL,ioos:station:DISL:BSCA:1,2012-02-02T22:00:00Z,30.3288,-87.8293,0.0,0.89,231.3,-9999.0,'1111122,1111122,1111122' 
DISL,ioos:station:DISL:BSCA:1,2012-02-02T22:30:00Z,30.3288,-87.8293,0.0,0.74,144.8,-9999.0,'1111122,1111122,1111122' 
DISL,ioos:station:DISL:BSCA:1,2012-02-02T23:00:00Z,30.3288,-87.8293,0.0,3.58,28.79,-9999.0,'1111122,1111122,1111122' 
DISL,ioos:station:DISL:BSCA:1,2012-02-02T23:30:00Z,30.3288,-87.8293,0.0,3.74,36.0,-9999.0,'1111122,1111122,1111122' 
DISL,ioos:station:DISL:BSCA:1,2012-02-03T00:00:00Z,30.3288,-87.8293,0.0,3.58,36.39,-9999.0,'1111122,1111122,1111122' 
DISL,ioos:station:DISL:BSCA:1,2012-02-03T00:30:00Z,30.3288,-87.8293,0.0,2.75,26.99,-9999.0,'1111122,1111122,1111122' 
DISL,ioos:station:DISL:BSCA:1,2012-02-03T01:00:00Z,30.3288,-87.8293,0.0,3.34,18.72,-9999.0,'1111122,1111122,1111122' 
DISL,ioos:station:DISL:BSCA:1,2012-02-03T01:30:00Z,30.3288,-87.8293,0.0,2.33,36.2,-9999.0,'1111122,1111122,1111122' 
DISL,ioos:station:DISL:BSCA:1,2012-02-03T02:00:00Z,30.3288,-87.8293,0.0,2.07,29.87,-9999.0,'1111122,1111122,1111122' 
DISL,ioos:station:DISL:BSCA:1,2012-02-03T02:30:00Z,30.3288,-87.8293,0.0,1.84,31.32,-9999.0,'1111122,1111122,1111122' 
DISL,ioos:station:DISL:BSCA:1,2012-02-03T03:00:00Z,30.3288,-87.8293,0.0,2.14,29.05,-9999.0,'1111122,1111122,1111122' 
DISL,ioos:station:DISL:BSCA:1,2012-02-03T03:30:00Z,30.3288,-87.8293,0.0,2.84,48.48,-9999.0,'1111122,1111122,1111122' 
DISL,ioos:station:DISL:BSCA:1,2012-02-03T04:00:00Z,30.3288,-87.8293,0.0,1.51,50.21,-9999.0,'1111122,1111122,1111122' 
DISL,ioos:station:DISL:BSCA:1,2012-02-03T04:30:00Z,30.3288,-87.8293,0.0,0.57,6.148,-9999.0,'1111122,1111122,1111122' 
DISL,ioos:station:DISL:BSCA:1,2012-02-03T05:00:00Z,30.3288,-87.8293,0.0,1.72,47.58,-9999.0,'1111122,1111122,1111122' 
DISL,ioos:station:DISL:BSCA:1,2012-02-03T05:30:00Z,30.3288,-87.8293,0.0,0.59,0.89,-9999.0,'1111122,1111122,1111122' 
DISL,ioos:station:DISL:BSCA:1,2012-02-03T06:00:00Z,30.3288,-87.8293,0.0,0.82,0.4,-9999.0,'1111122,1111122,1111122' 
DISL,ioos:station:DISL:BSCA:1,2012-02-03T06:30:00Z,30.3288,-87.8293,0.0,0.23,322.1,-9999.0,'1111122,1111122,1111122' 
DISL,ioos:station:DISL:BSCA:1,2012-02-03T07:00:00Z,30.3288,-87.8293,0.0,0.27,329.1,-9999.0,'1111122,1111122,1111122' 
DISL,ioos:station:DISL:BSCA:1,2012-02-03T07:30:00Z,30.3288,-87.8293,0.0,0.41,324.4,-9999.0,'1111122,1111122,1111122' 
DISL,ioos:station:DISL:BSCA:1,2012-02-03T08:00:00Z,30.3288,-87.8293,0.0,0.44,351.2,-9999.0,'1111122,1111122,1111122' 
DISL,ioos:station:DISL:BSCA:1,2012-02-03T08:30:00Z,30.3288,-87.8293,0.0,0.59,317.8,-9999.0,'1111122,1111122,1111122' 
DISL,ioos:station:DISL:BSCA:1,2012-02-03T09:00:00Z,30.3288,-87.8293,0.0,0.64,326.4,-9999.0,'1111122,1111122,1111122' 
DISL,ioos:station:DISL:BSCA:1,2012-02-03T09:30:00Z,30.3288,-87.8293,0.0,0.71,4.652,-9999.0,'1111122,1111122,1111122' 
DISL,ioos:station:DISL:BSCA:1,2012-02-03T10:00:00Z,30.3288,-87.8293,0.0,0.55,7.261,-9999.0,'1111122,1111122,1111122' 
DISL,ioos:station:DISL:BSCA:1,2012-02-03T10:30:00Z,30.3288,-87.8293,0.0,0.65,344.4,-9999.0,'1111122,1111122,1111122' 
DISL,ioos:station:DISL:BSCA:1,2012-02-03T11:00:00Z,30.3288,-87.8293,0.0,1.23,6.267,-9999.0,'1111122,1111122,1111122' 
DISL,ioos:station:DISL:BSCA:1,2012-02-03T11:30:00Z,30.3288,-87.8293,0.0,2.38,28.49,-9999.0,'1111122,1111122,1111122' 
DISL,ioos:station:DISL:BSCA:1,2012-02-03T12:00:00Z,30.3288,-87.8293,0.0,3.01,49.71,-9999.0,'1111122,1111122,1111122' 
DISL,ioos:station:DISL:BSCA:1,2012-02-03T12:30:00Z,30.3288,-87.8293,0.0,5.14,81.1,-9999.0,'1111122,1111122,1111122' 
DISL,ioos:station:DISL:BSCA:1,2012-02-03T13:00:00Z,30.3288,-87.8293,0.0,5.11,86.8,-9999.0,'1111122,1111122,1111122' 
DISL,ioos:station:DISL:BSCA:1,2012-02-03T13:30:00Z,30.3288,-87.8293,0.0,4.95,88.6,-9999.0,'1111122,1111122,1111122' 
DISL,ioos:station:DISL:BSCA:1,2012-02-03T14:00:00Z,30.3288,-87.8293,0.0,6.23,88.5,-9999.0,'1111122,1111122,1111122' 
DISL,ioos:station:DISL:BSCA:1,2012-02-03T14:30:00Z,30.3288,-87.8293,0.0,7.92,94.2,-9999.0,'1111122,1111122,1111122' 
DISL,ioos:station:DISL:BSCA:1,2012-02-03T15:00:00Z,30.3288,-87.8293,0.0,8.89,99.6,-9999.0,'1111122,1111122,1111122' 
DISL,ioos:station:DISL:BSCA:1,2012-02-03T15:30:00Z,30.3288,-87.8293,0.0,8.77,100.9,-9999.0,'1111122,1111122,1111122' 
DISL,ioos:station:DISL:BSCA:1,2012-02-03T16:00:00Z,30.3288,-87.8293,0.0,8.41,103.7,-9999.0,'1111122,1111122,1111122' 
DISL,ioos:station:DISL:BSCA:1,2012-02-03T16:30:00Z,30.3288,-87.8293,0.0,8.85,100.8,-9999.0,'1111122,1111122,1111122' 
DISL,ioos:station:DISL:BSCA:1,2012-02-03T17:00:00Z,30.3288,-87.8293,0.0,8.4,105.7,-9999.0,'1111122,1111122,1111122' 
DISL,ioos:station:DISL:BSCA:1,2012-02-03T17:30:00Z,30.3288,-87.8293,0.0,8.25,107.1,-9999.0,'1111122,1111122,1111122' 
DISL,ioos:station:DISL:BSCA:1,2012-02-03T18:00:00Z,30.3288,-87.8293,0.0,8.16,107.8,-9999.0,'1111122,1111122,1111122' 
DISL,ioos:station:DISL:BSCA:1,2012-02-03T18:30:00Z,30.3288,-87.8293,0.0,7.28,104.7,-9999.0,'1111122,1111122,1111122' 
DISL,ioos:station:DISL:BSCA:1,2012-02-03T19:00:00Z,30.3288,-87.8293,0.0,7.98,106.8,-9999.0,'1111122,1111122,1111122' 
DISL,ioos:station:DISL:BSCA:1,2012-02-03T19:30:00Z,30.3288,-87.8293,0.0,7.88,101.6,-9999.0,'1111122,1111122,1111122' 
DISL,ioos:station:DISL:BSCA:1,2012-02-03T20:00:00Z,30.3288,-87.8293,0.0,6.98,102.9,-9999.0,'1111122,1111122,1111122' 
DISL,ioos:station:DISL:BSCA:1,2012-02-03T20:30:00Z,30.3288,-87.8293,0.0,7.72,106.8,-9999.0,'1111122,1111122,1111122' 
DISL,ioos:station:DISL:BSCA:1,2012-02-03T21:00:00Z,30.3288,-87.8293,0.0,7.7,106.7,-9999.0,'1111122,1111122,1111122' 
DISL,ioos:station:DISL:BSCA:1,2012-02-03T21:30:00Z,30.3288,-87.8293,0.0,6.84,100.8,-9999.0,'1111122,1111122,1111122' 
DISL,ioos:station:DISL:BSCA:1,2012-02-03T22:00:00Z,30.3288,-87.8293,0.0,5.65,98.4,-9999.0,'1111122,1111122,1111122' 
DISL,ioos:station:DISL:BSCA:1,2012-02-03T22:30:00Z,30.3288,-87.8293,0.0,5.54,102.9,-9999.0,'1111122,1111122,1111122' 
DISL,ioos:station:DISL:BSCA:1,2012-02-03T23:00:00Z,30.3288,-87.8293,0.0,4.84,95.8,-9999.0,'1111122,1111122,1111122' 
DISL,ioos:station:DISL:BSCA:1,2012-02-03T23:30:00Z,30.3288,-87.8293,0.0,4.15,88.2,-9999.0,'1111122,1111122,1111122' 
DISL,ioos:station:DISL:BSCA:1,2012-02-04T00:00:00Z,30.3288,-87.8293,0.0,5.03,103.8,-9999.0,'1111122,1111122,1111122' 
DISL,ioos:station:DISL:BSCA:1,2012-02-04T00:30:00Z,30.3288,-87.8293,0.0,5.28,105.9,-9999.0,'1111122,1111122,1111122' 
DISL,ioos:station:DISL:BSCA:1,2012-02-04T01:00:00Z,30.3288,-87.8293,0.0,5.59,107.4,-9999.0,'1111122,1111122,1111122' 
DISL,ioos:station:DISL:BSCA:1,2012-02-04T01:30:00Z,30.3288,-87.8293,0.0,5.73,98.2,-9999.0,'1111122,1111122,1111122' 
DISL,ioos:station:DISL:BSCA:1,2012-02-04T02:00:00Z,30.3288,-87.8293,0.0,6.42,107.6,-9999.0,'1111122,1111122,1111122' 
DISL,ioos:station:DISL:BSCA:1,2012-02-04T02:30:00Z,30.3288,-87.8293,0.0,6.21,104.9,-9999.0,'1111122,1111122,1111122' 
DISL,ioos:station:DISL:BSCA:1,2012-02-04T03:00:00Z,30.3288,-87.8293,0.0,6.23,115.9,-9999.0,'1111122,1111122,1111122' 
DISL,ioos:station:DISL:BSCA:1,2012-02-04T03:30:00Z,30.3288,-87.8293,0.0,5.85,107.7,-9999.0,'1111122,1111122,1111122' 
DISL,ioos:station:DISL:BSCA:1,2012-02-04T04:00:00Z,30.3288,-87.8293,0.0,5.84,113.8,-9999.0,'1111122,1111122,1111122' 
DISL,ioos:station:DISL:BSCA:1,2012-02-04T04:30:00Z,30.3288,-87.8293,0.0,6.47,113.8,-9999.0,'1111122,1111122,1111122' 
DISL,ioos:station:DISL:BSCA:1,2012-02-04T05:00:00Z,30.3288,-87.8293,0.0,5.73,116.5,-9999.0,'1111122,1111122,1111122' 
DISL,ioos:station:DISL:BSCA:1,2012-02-04T05:30:00Z,30.3288,-87.8293,0.0,5.1,119.7,-9999.0,'1111122,1111122,1111122' 
DISL,ioos:station:DISL:BSCA:1,2012-02-04T06:00:00Z,30.3288,-87.8293,0.0,4.97,132.6,-9999.0,'1111122,1111122,1111122' 
DISL,ioos:station:DISL:BSCA:1,2012-02-04T06:30:00Z,30.3288,-87.8293,0.0,5.44,128.0,-9999.0,'1111122,1111122,1111122' 
DISL,ioos:station:DISL:BSCA:1,2012-02-04T07:00:00Z,30.3288,-87.8293,0.0,4.48,121.6,-9999.0,'1111122,1111122,1111122' 
DISL,ioos:station:DISL:BSCA:1,2012-02-04T07:30:00Z,30.3288,-87.8293,0.0,4.38,108.8,-9999.0,'1111122,1111122,1111122' 
DISL,ioos:station:DISL:BSCA:1,2012-02-04T08:00:00Z,30.3288,-87.8293,0.0,3.19,102.4,-9999.0,'1111122,1111122,1111122' 
DISL,ioos:station:DISL:BSCA:1,2012-02-04T08:30:00Z,30.3288,-87.8293,0.0,4.85,115.3,-9999.0,'1111122,1111122,1111122' 
DISL,ioos:station:DISL:BSCA:1,2012-02-04T09:00:00Z,30.3288,-87.8293,0.0,6.34,121.6,-9999.0,'1111122,1111122,1111122' 
DISL,ioos:station:DISL:BSCA:1,2012-02-04T09:30:00Z,30.3288,-87.8293,0.0,5.2,120.1,-9999.0,'1111122,1111122,1111122' 
DISL,ioos:station:DISL:BSCA:1,2012-02-04T10:00:00Z,30.3288,-87.8293,0.0,5.52,122.3,-9999.0,'1111122,1111122,1111122' 
DISL,ioos:station:DISL:BSCA:1,2012-02-04T10:30:00Z,30.3288,-87.8293,0.0,5.22,101.3,-9999.0,'1111122,1111122,1111122' 
DISL,ioos:station:DISL:BSCA:1,2012-02-04T11:00:00Z,30.3288,-87.8293,0.0,5.22,95.5,-9999.0,'1111122,1111122,1111122' 
DISL,ioos:station:DISL:BSCA:1,2012-02-04T11:30:00Z,30.3288,-87.8293,0.0,5.01,111.3,-9999.0,'1111122,1111122,1111122' 
DISL,ioos:station:DISL:BSCA:1,2012-02-04T12:00:00Z,30.3288,-87.8293,0.0,5.07,109.8,-9999.0,'1111122,1111122,1111122' 
DISL,ioos:station:DISL:BSCA:1,2012-02-04T12:30:00Z,30.3288,-87.8293,0.0,5.25,95.8,-9999.0,'1111122,1111122,1111122' 
DISL,ioos:station:DISL:BSCA:1,2012-02-04T13:00:00Z,30.3288,-87.8293,0.0,5.42,103.2,-9999.0,'1111122,1111122,1111122' 
DISL,ioos:station:DISL:BSCA:1,2012-02-04T13:30:00Z,30.3288,-87.8293,0.0,5.46,102.2,-9999.0,'1111122,1111122,1111122' 
DISL,ioos:station:DISL:BSCA:1,2012-02-04T14:00:00Z,30.3288,-87.8293,0.0,6.26,105.5,-9999.0,'1111122,1111122,1111122' 
DISL,ioos:station:DISL:BSCA:1,2012-02-04T14:30:00Z,30.3288,-87.8293,0.0,5.63,105.7,-9999.0,'1111122,1111122,1111122' 
DISL,ioos:station:DISL:BSCA:1,2012-02-04T15:00:00Z,30.3288,-87.8293,0.0,6.69,112.1,-9999.0,'1111122,1111122,1111122' 
DISL,ioos:station:DISL:BSCA:1,2012-02-04T15:30:00Z,30.3288,-87.8293,0.0,7.09,113.6,-9999.0,'1111122,1111122,1111122' 
DISL,ioos:station:DISL:BSCA:1,2012-02-04T16:00:00Z,30.3288,-87.8293,0.0,7.77,111.6,-9999.0,'1111122,1111122,1111122' 
DISL,ioos:station:DISL:BSCA:1,2012-02-04T16:30:00Z,30.3288,-87.8293,0.0,7.4,115.1,-9999.0,'1111122,1111122,1111122' 
DISL,ioos:station:DISL:BSCA:1,2012-02-04T17:00:00Z,30.3288,-87.8293,0.0,7.8,117.1,-9999.0,'1111122,1111122,1111122' 
DISL,ioos:station:DISL:BSCA:1,2012-02-04T17:30:00Z,30.3288,-87.8293,0.0,7.45,119.8,-9999.0,'1111122,1111122,1111122' 
DISL,ioos:station:DISL:BSCA:1,2012-02-04T18:00:00Z,30.3288,-87.8293,0.0,7.58,120.2,-9999.0,'1111122,1111122,1111122' 
DISL,ioos:station:DISL:BSCA:1,2012-02-04T18:30:00Z,30.3288,-87.8293,0.0,6.53,122.0,-9999.0,'1111122,1111122,1111122' 
DISL,ioos:station:DISL:BSCA:1,2012-02-04T19:00:00Z,30.3288,-87.8293,0.0,7.65,122.3,-9999.0,'1111122,1111122,1111122' 
DISL,ioos:station:DISL:BSCA:1,2012-02-04T19:30:00Z,30.3288,-87.8293,0.0,6.76,124.6,-9999.0,'1111122,1111122,1111122' 
DISL,ioos:station:DISL:BSCA:1,2012-02-04T20:00:00Z,30.3288,-87.8293,0.0,6.06,129.7,-9999.0,'1111122,1111122,1111122' 
DISL,ioos:station:DISL:BSCA:1,2012-02-04T20:30:00Z,30.3288,-87.8293,0.0,5.1,135.0,-9999.0,'1111122,1111122,1111122' 
DISL,ioos:station:DISL:BSCA:1,2012-02-04T21:00:00Z,30.3288,-87.8293,0.0,3.62,137.1,-9999.0,'1111122,1111122,1111122' 
DISL,ioos:station:DISL:BSCA:1,2012-02-04T21:30:00Z,30.3288,-87.8293,0.0,4.08,134.0,-9999.0,'1111122,1111122,1111122' 
DISL,ioos:station:DISL:BSCA:1,2012-02-04T22:00:00Z,30.3288,-87.8293,0.0,5.06,134.9,-9999.0,'1111122,1111122,1111122' 
DISL,ioos:station:DISL:BSCA:1,2012-02-04T22:30:00Z,30.3288,-87.8293,0.0,3.41,140.5,-9999.0,'1111122,1111122,1111122' 
DISL,ioos:station:DISL:BSCA:1,2012-02-04T23:00:00Z,30.3288,-87.8293,0.0,3.38,154.1,-9999.0,'1111122,1111122,1111122' 
DISL,ioos:station:DISL:BSCA:1,2012-02-04T23:30:00Z,30.3288,-87.8293,0.0,2.63,154.5,-9999.0,'1111122,1111122,1111122' 
DISL,ioos:station:DISL:BSCA:1,2012-02-05T00:00:00Z,30.3288,-87.8293,0.0,2.78,148.3,-9999.0,'1111122,1111122,1111122' 
DISL,ioos:station:DISL:BSCA:1,2012-02-05T00:30:00Z,30.3288,-87.8293,0.0,3.17,141.4,-9999.0,'1111122,1111122,1111122' 
DISL,ioos:station:DISL:BSCA:1,2012-02-05T01:00:00Z,30.3288,-87.8293,0.0,1.08,230.3,-9999.0,'1111122,1111122,1111122' 
DISL,ioos:station:DISL:BSCA:1,2012-02-05T01:30:00Z,30.3288,-87.8293,0.0,1.41,180.6,-9999.0,'1111122,1111122,1111122' 
DISL,ioos:station:DISL:BSCA:1,2012-02-05T02:00:00Z,30.3288,-87.8293,0.0,1.53,161.9,-9999.0,'1111122,1111122,1111122' 
DISL,ioos:station:DISL:BSCA:1,2012-02-05T02:30:00Z,30.3288,-87.8293,0.0,3.35,121.1,-9999.0,'1111122,1111122,1111122' 
DISL,ioos:station:DISL:BSCA:1,2012-02-05T03:00:00Z,30.3288,-87.8293,0.0,2.25,145.2,-9999.0,'1111122,1111122,1111122' 
DISL,ioos:station:DISL:BSCA:1,2012-02-05T03:30:00Z,30.3288,-87.8293,0.0,2.93,125.8,-9999.0,'1111122,1111122,1111122' 
DISL,ioos:station:DISL:BSCA:1,2012-02-05T04:00:00Z,30.3288,-87.8293,0.0,1.13,249.6,-9999.0,'1111122,1111122,1111122' 
DISL,ioos:station:DISL:BSCA:1,2012-02-05T04:30:00Z,30.3288,-87.8293,0.0,1.88,149.3,-9999.0,'1111122,1111122,1111122' 